Content
SEND FEEDBACK

Daily
Averages
Monthly
Summary
United States of America

MANISTIQUE, MICHIGAN


Home > North America > United States > Michigan
Elevation: 610 feet     Latitude: 45 58N     Longitude: 086 15W

WEATHER
 
SELECT A DAY
Number of Records: 410,007;   Date Range: 5/11/98 - 8/12/14
 
SHARE

PRINT THIS DATA

[ ← Previous Day ]
WEATHER ALMANAC - MAY 15, 2014
[ Next Day → ]
[ °C ]   °F
Weather ElementAverageHighLow
Temperature38.9 °F46.4 °F (11:54 am)32.9 °F (10:35 pm)
Dewpoint32.4 °F36.9 °F (1:55 pm)29.5 °F (5:35 am)
Humidity78.5 %96 % (8:15 pm)60 % (11:54 am)
Barometer29.97 in30.14 in (12:34 am)29.87 in (3:14 pm)
Wind Speed12.6 mph20.7 mph (3:35 pm)
Wind Gust31.1 mph (3:14 pm)
Weather ElementAverage
Visibility8.1 mi
Wind DirectionNW (318 °)

Weather ElementTotal
Precipitation0.07 in
Heating Degree Days25.4 (Base 65)
Averaged from 69 records on May 15, 2014
WEATHER CONDITIONS BREAKOUT
WIND DIRECTION BREAKOUT
WEATHER BY HOUR - MAY 15, 2014
[ °C ]   °F
Local TimeTemperatureDewpointHumidityBarometerVisibilityWind DirectionWind SpeedGust SpeedPrecipitationEventsConditions
12:34 AM40.5 °F30.7 °F68 %30.14 in10.0 miNNW (330°)9.2 mphClear
12:55 AM40.3 °F30.7 °F69 %30.14 in10.0 miNorth (360°)8.1 mphScattered Clouds
1:15 AM40.1 °F30.9 °F70 %30.13 in10.0 miNNW (330°)9.2 mphMostly Cloudy
1:34 AM40.1 °F31.1 °F70 %30.12 in10.0 miNNW (330°)8.1 mphMostly Cloudy
1:55 AM39.9 °F31.3 °F71 %30.11 in10.0 miNW (320°)9.2 mphOvercast
2:15 AM40.1 °F31.1 °F70 %30.10 in10.0 miNNW (330°)10.4 mphOvercast
2:35 AM40.1 °F31.3 °F71 %30.09 in10.0 miNW (320°)9.2 mphOvercast
2:55 AM40.1 °F30.9 °F70 %30.09 in10.0 miNNW (340°)11.5 mphOvercast
3:14 AM40.3 °F30.6 °F68 %30.08 in10.0 miNorth (350°)10.4 mphOvercast
3:35 AM40.3 °F30.4 °F68 %30.07 in10.0 miNorth (350°)10.4 mphOvercast
3:55 AM40.1 °F30.2 °F68 %30.06 in10.0 miNorth (350°)12.7 mph18.4 mphOvercast
4:14 AM39.7 °F30.0 °F68 %30.06 in10.0 miNorth (360°)13.8 mph18.4 mphOvercast
4:35 AM39.6 °F29.8 °F68 %30.05 in10.0 miNorth (350°)12.7 mph20.7 mphOvercast
4:55 AM39.6 °F29.8 °F68 %30.05 in10.0 miNorth (350°)13.8 mphOvercast
5:15 AM39.4 °F29.8 °F69 %30.03 in10.0 miNorth (350°)11.5 mph17.3 mphOvercast
5:35 AM39.2 °F29.5 °F68 %30.03 in10.0 miNNW (340°)11.5 mphOvercast
5:54 AM39.2 °F29.8 °F69 %30.03 in10.0 miNNW (330°)9.2 mphOvercast
6:15 AM38.8 °F29.8 °F70 %30.02 in10.0 miNorth (350°)10.4 mphOvercast
6:35 AM38.7 °F30.0 °F71 %30.01 in10.0 miNorth (350°)11.5 mphOvercast
6:54 AM38.8 °F30.0 °F71 %29.99 in10.0 miNorth (360°)12.7 mph16.1 mphOvercast
7:15 AM39.0 °F30.2 °F71 %30.01 in10.0 miNNW (340°)11.5 mph16.1 mphOvercast
7:35 AM39.2 °F30.6 °F71 %30.00 in10.0 miNNW (340°)11.5 mphOvercast
7:55 AM39.4 °F31.1 °F72 %29.99 in10.0 miNorth (360°)12.7 mphOvercast
8:15 AM39.6 °F31.1 °F72 %29.98 in10.0 miNorth (360°)12.7 mph19.6 mphOvercast
8:34 AM40.1 °F31.5 °F71 %29.97 in10.0 miNorth (360°)11.5 mphOvercast
8:55 AM40.6 °F32.0 °F71 %29.97 in10.0 miNorth (360°)15.0 mph18.4 mphOvercast
9:14 AM41.5 °F32.0 °F69 %29.97 in10.0 miNorth (360°)12.7 mphOvercast
9:35 AM42.6 °F32.0 °F66 %29.96 in10.0 miNorth (10°)12.7 mph17.3 mphOvercast
9:55 AM42.8 °F32.0 °F66 %29.97 in10.0 miNorth (350°)10.4 mphOvercast
10:14 AM44.2 °F33.1 °F65 %29.95 in10.0 miNorth (10°)12.7 mph18.4 mphOvercast
10:35 AM44.2 °F33.6 °F66 %29.94 in10.0 miNNE (20°)12.7 mphOvercast
10:55 AM44.6 °F34.0 °F66 %29.92 in10.0 miNorth (10°)16.1 mphOvercast
11:15 AM45.7 °F34.3 °F65 %29.91 in10.0 miNorth (350°)17.3 mph27.6 mphOvercast
11:35 AM45.9 °F33.8 °F63 %29.90 in10.0 miNorth (360°)11.5 mph16.1 mphOvercast
11:54 AM46.4 °F33.1 °F60 %29.89 in10.0 miNNW (340°)16.1 mph23.0 mphOvercast
12:15 PM45.7 °F33.8 °F63 %29.89 in10.0 miNorth (350°)11.5 mph19.6 mphOvercast
12:35 PM45.7 °F34.2 °F64 %29.90 in10.0 miNorth (360°)17.3 mph21.9 mphOvercast
12:54 PM45.9 °F34.5 °F65 %29.89 in10.0 miNorth (350°)17.3 mph21.9 mphOvercast
1:15 PM45.0 °F36.5 °F72 %29.89 in10.0 miNorth (350°)15.0 mph23.0 mphRainLight Rain
1:34 PM43.7 °F36.5 °F76 %29.89 in10.0 miNNW (340°)16.1 mph26.5 mphRainLight Rain
1:55 PM43.3 °F36.9 °F78 %29.88 in10.0 miNorth (350°)15.0 mph24.2 mphRainLight Rain
2:15 PM42.4 °F35.6 °F77 %29.88 in10.0 miNNW (340°)18.4 mph28.8 mphRainLight Rain
3:14 PM39.4 °F33.8 °F80 %29.87 in10.0 miNNW (340°)17.3 mph31.1 mphRainLight Rain
3:35 PM38.1 °F33.8 °F84 %29.88 in10.0 miNNW (340°)20.7 mph29.9 mphRainLight Rain
3:55 PM37.0 °F34.3 °F90 %29.89 in10.0 miNNW (340°)18.4 mph27.6 mphRainLight Rain
4:14 PM36.5 °F34.0 °F91 %29.90 in4.0 miNorth (350°)16.1 mph27.6 mphRainLight Rain
4:35 PM36.1 °F34.0 °F92 %29.90 in4.0 miNNW (340°)12.7 mph27.6 mphRainLight Rain
4:55 PM36.0 °F34.2 °F93 %29.91 in5.0 miNW (310°)11.5 mph0.01 inRainLight Rain
5:15 PM35.6 °F34.0 °F94 %29.91 in3.0 miNNW (330°)15.0 mph18.4 mphOvercast
5:35 PM35.2 °F33.8 °F94 %29.91 in2.5 miNNW (330°)15.0 mph24.2 mph0.02 inSnowLight Snow
5:54 PM35.6 °F34.2 °F94 %29.91 in4.0 miNNW (330°)18.4 mph23.0 mph0.02 inRainLight Rain
6:15 PM35.8 °F34.2 °F94 %29.92 in5.0 miNNW (330°)12.7 mph23.0 mphRainLight Rain
6:35 PM35.6 °F33.8 °F93 %29.92 in3.0 miNNW (330°)16.1 mph23.0 mph0.01 inOvercast
6:55 PM35.6 °F34.0 °F94 %29.93 in3.0 miNNW (330°)16.1 mph24.2 mph0.01 inOvercast
7:15 PM35.6 °F33.8 °F93 %29.93 in5.0 miNNW (330°)12.7 mph23.0 mphRainLight Rain
7:34 PM35.1 °F33.8 °F95 %29.94 in7.0 miNW (320°)12.7 mphRainRain
7:55 PM34.7 °F33.3 °F94 %29.95 in5.0 miNW (310°)13.8 mph17.3 mphRainLight Rain
8:15 PM34.0 °F32.9 °F96 %29.96 in5.0 miNW (310°)9.2 mph18.4 mphRainLight Rain
8:34 PM33.8 °F32.7 °F96 %29.95 in5.0 miNNW (330°)11.5 mph18.4 mphRainLight Rain
8:55 PM33.8 °F32.4 °F94 %29.96 in7.0 miNW (320°)11.5 mph17.3 mphSnowLight Snow
9:15 PM33.8 °F32.4 °F94 %29.96 in7.0 miNW (310°)8.1 mphSnowLight Snow
9:35 PM33.4 °F32.4 °F96 %29.97 in7.0 miWNW (300°)11.5 mph18.4 mphSnowLight Snow
9:55 PM33.4 °F32.4 °F96 %29.97 in5.0 miNW (310°)11.5 mphSnowLight Snow
10:14 PM33.1 °F32.2 °F96 %29.96 in5.0 miNW (320°)8.1 mph16.1 mphSnowLight Snow
10:35 PM32.9 °F32.0 °F96 %29.96 in4.0 miNW (320°)10.4 mph19.6 mphSnowLight Snow
10:54 PM32.9 °F32.0 °F96 %29.97 in3.0 miNW (310°)9.2 mph18.4 mphOvercast
11:15 PM33.1 °F32.2 °F96 %29.98 in3.0 miNW (320°)8.1 mphOvercast
11:35 PM33.1 °F32.2 °F96 %29.98 in4.0 miWNW (300°)9.2 mphOvercast
11:55 PM33.1 °F32.2 °F96 %29.98 in5.0 miNW (310°)6.9 mphOvercast
Hourly data recorded from KISQ, located miles away from Manistique, Michigan







STORIES FROM OUR PARTNERS